Flag for Canada Weather past 2 weeks in Saguenay, Quebec, Canada

Now
-10 °F

Extremely cold.


Feels Like: -29 °F
Forecast: -17 / -6 °F
Wind: 10 mph from Southwest

Location: Jonquiere Airport

Current Time: Jan 31, 2015 at 3:02:08 AM

Latest Report: Jan 31, 2015 at 2:00 AM


Visibility: N/A

Pressure: 30.22 "Hg

Humidity: 70%

Dew point: -17 °F

Location of SaguenayLocation

Historic Weather in Saguenay — Graph

°F

Saguenay temperature yesterday

Maximum temperature yesterday: 22 °F (at 1:00 AM)
Minimum temperature yesterday: -5 °F (at 11:00 PM)
Average temperature yesterday: 13 °F

Past Weeks' High & Low Weather Summary

 TemperatureHumidityPressure
High33 °F (Jan 19, 6:00 AM)100% (Jan 19, 7:00 AM)30.47 "Hg (Jan 19, 7:00 AM)
Low-24 °F (Jan 27, 6:00 AM)34% (Jan 28, 4:00 PM)29.20 "Hg (Jan 24, 11:00 PM)
Average4 °F76%29.97 "Hg
* Reported Jan 16 2:00 AM — Jan 31 2:00 AM, Saguenay, Weather by CustomWeather, © 2014

Note: Actual official high and low records may vary slightly from our data, if they occured in-between our weather recording intervals... More about our weather records

Advertising

Saguenay weather history for previous 24 hours

 ConditionsComfort  
Time TempWeatherWind HumidityBarometerVisibility
2:00 AM
Jan 31
-10 °FExtremely cold.10 mph70%30.22 "HgN/A
1:00 AM-9 °FFrigid.13 mph72%30.17 "HgN/A
12:00 AM-7 °FFrigid.10 mph72%30.17 "HgN/A
11:00 PM
Jan 30
-5 °FFrigid.14 mph73%30.16 "HgN/A
10:00 PM-2 °FFrigid.15 mph75%30.15 "HgN/A
9:00 PM0 °FFrigid.15 mph75%30.14 "HgN/A
8:00 PM3 °FFrigid.16 mph80%30.10 "HgN/A
7:00 PM5 °FFrigid.15 mph79%30.09 "HgN/A
6:00 PM6 °FFrigid.12 mph80%30.07 "HgN/A
5:00 PM7 °FFrigid.13 mph79%30.04 "HgN/A
4:00 PM7 °FFrigid.16 mph81%30.02 "HgN/A
3:00 PM9 °FFrigid.13 mph79%30.00 "HgN/A
2:00 PM9 °FFrigid.16 mph78%29.96 "HgN/A
1:00 PM10 °FFrigid.15 mph78%29.95 "HgN/A
12:00 PM10 °FCold.16 mph90%29.93 "HgN/A
11:00 AM13 °FCold.16 mph92%29.91 "HgN/A
10:00 AM22 °FCold.14 mph89%29.87 "HgN/A
9:00 AM21 °FCold.6 mph92%29.85 "HgN/A
8:00 AM21 °FCold.5 mph92%29.83 "HgN/A
7:00 AM21 °FCold.2 mph92%29.82 "HgN/A
6:00 AM21 °FCold.7 mph91%29.82 "HgN/A
5:00 AM21 °FCold.6 mph91%29.82 "HgN/A
4:00 AM22 °FCold.7 mph82%29.82 "HgN/A
3:00 AM22 °FCold.7 mph69%29.82 "HgN/A
Weather by CustomWeather, © 2014

See weather overviewHow to use our weather pages